Weather in Teba

Russia / Kemerovo Oblast     53°38′33″N   88°32′58″E
temp.,
°C
wind,
m/s
gust,
m/s
humid.,
%
clouds,
%
prec.,
mm/h
press.,
hPa
HPBL,
m
13 may, thu
thu1301:00+6e117549 0.0 101510
04:00+5e117919 0.0 101610
07:00+8ese117178 0.0 101668
10:00+14sw225691 0.0 1014835
13:00+16sw1151100 1.9 10131435
16:00+17sw2246100 0.1 10121542
19:00+15s1162100 0.3 101253
22:00+8e229061 1.3 101421
14 may, fri
fri1401:00+7e119041 2.8 101413
04:00+5ene11895 0.0 101410
07:00+8sse11847 0.0 101565
10:00+12w237260 0.2 1015720
13:00+12wnw478199 2.5 1015892
16:00+14nw596073 2.5 10162081
19:00+12nw585320 2.5 10181378
22:00+6wsw1170100 0.0 102311
15 may, sat
sat1501:00+6sw1167100 0.0 102413
04:00+4ssw1170100 0.0 102510
07:00+6sse1164100 0.0 102665
10:00+9sw1352100 0.0 1026457
13:00+9ssw1256100 0.0 1026294
16:00+11ene1159100 0.0 102450
19:00+13se1357100 0.0 1022323
22:00+9ese117097 0.0 102212
16 may, sun
sun1601:00+7se228029 0.0 102118
04:00+6ese218763 0.0 102012
07:00+10se1177100 0.0 101951
10:00+12s126999 0.0 1018241
13:00+20wsw474671 0.1 10151722
16:00+19wsw385997 0.3 10131394
19:00+14n2590100 3.3 1013217
22:00+11wsw1297100 1.9 101473
17 may, mon
mon1701:00+10sse009985 1.9 101512
04:00+10wsw1199100 0.1 101638
07:00+11sw1299100 0.3 1017102
10:00+11wsw1298100 0.3 1017196
13:00+13wsw139291 0.8 1017448
16:00+15wsw248492 0.6 1016684
19:00+15s228293 0.7 101584
22:00+11sse229483 0.2 101432